TimeEDT,TemperatureF,Dew PointF,Humidity,Sea Level PressureIn,VisibilityMPH,Wind Direction,Wind SpeedMPH,Gust SpeedMPH,PrecipitationIn,Events,Conditions,WindDirDegrees,DateUTC
12:15 AM,55.4,55.4,100,29.98,10.0,Calm,Calm,-,N/A,,Overcast,0,2013-05-08 04:15:00
12:35 AM,55.4,55.4,100,29.98,10.0,Calm,Calm,-,N/A,,Overcast,0,2013-05-08 04:35:00
12:55 AM,55.4,55.4,100,29.98,10.0,Calm,Calm,-,N/A,,Overcast,0,2013-05-08 04:55:00
1:15 AM,55.4,55.4,100,29.97,10.0,SW,3.5,-,N/A,,Overcast,220,2013-05-08 05:15:00
1:35 AM,55.4,55.4,100,29.97,10.0,Calm,Calm,-,N/A,,Overcast,0,2013-05-08 05:35:00
1:55 AM,55.4,55.4,100,29.96,7.0,Calm,Calm,-,N/A,,Mostly Cloudy,0,2013-05-08 05:55:00
2:15 AM,55.4,55.4,100,29.95,4.0,Calm,Calm,-,N/A,,Mostly Cloudy,0,2013-05-08 06:15:00
2:35 AM,55.4,55.4,100,29.95,2.5,Calm,Calm,-,N/A,,Mostly Cloudy,0,2013-05-08 06:35:00
2:55 AM,55.4,55.4,100,29.95,2.5,Calm,Calm,-,N/A,,Overcast,0,2013-05-08 06:55:00
3:15 AM,55.4,55.4,100,29.94,5.0,Calm,Calm,-,N/A,,Mostly Cloudy,0,2013-05-08 07:15:00
3:35 AM,53.6,53.6,100,29.94,3.0,Calm,Calm,-,N/A,,Mostly Cloudy,0,2013-05-08 07:35:00
3:55 AM,53.6,53.6,100,29.94,0.8,Calm,Calm,-,N/A,,Mostly Cloudy,0,2013-05-08 07:55:00
4:15 AM,53.6,53.6,100,29.94,0.2,Calm,Calm,-,N/A,Fog,Fog,0,2013-05-08 08:15:00
4:35 AM,51.8,51.8,100,29.95,0.5,Calm,Calm,-,N/A,Fog,Fog,0,2013-05-08 08:35:00
4:55 AM,51.8,51.8,100,29.95,0.2,Calm,Calm,-,N/A,Fog,Fog,0,2013-05-08 08:55:00
5:15 AM,51.8,51.8,100,29.95,1.8,Calm,Calm,-,N/A,,Overcast,0,2013-05-08 09:15:00
5:35 AM,53.6,53.6,100,29.95,3.0,Calm,Calm,-,N/A,,Mostly Cloudy,0,2013-05-08 09:35:00
5:55 AM,51.8,51.8,100,29.95,3.0,Calm,Calm,-,N/A,,Overcast,0,2013-05-08 09:55:00
6:15 AM,51.8,51.8,100,29.96,1.2,Calm,Calm,-,N/A,,Mostly Cloudy,0,2013-05-08 10:15:00
6:35 AM,51.8,51.8,100,29.97,1.2,Calm,Calm,-,N/A,,Overcast,0,2013-05-08 10:35:00
6:55 AM,53.6,53.6,100,29.97,1.2,Calm,Calm,-,N/A,,Overcast,0,2013-05-08 10:55:00
7:15 AM,53.6,53.6,100,29.98,0.2,West,3.5,-,N/A,Fog,Fog,270,2013-05-08 11:15:00
7:35 AM,53.6,53.6,100,29.99,0.2,Calm,Calm,-,N/A,Fog,Fog,0,2013-05-08 11:35:00
7:55 AM,53.6,53.6,100,30.00,0.2,Calm,Calm,-,N/A,Fog,Fog,0,2013-05-08 11:55:00
8:15 AM,55.4,55.4,100,30.01,0.2,NNW,3.5,-,N/A,Fog,Fog,340,2013-05-08 12:15:00
8:35 AM,55.4,55.4,100,30.02,0.2,North,3.5,-,N/A,Fog,Fog,350,2013-05-08 12:35:00
8:55 AM,55.4,55.4,100,30.02,0.2,Calm,Calm,-,N/A,Fog,Fog,0,2013-05-08 12:55:00
9:15 AM,55.4,55.4,100,30.03,0.2,North,4.6,-,N/A,Fog,Fog,360,2013-05-08 13:15:00
9:35 AM,55.4,55.4,100,30.03,3.0,North,3.5,-,N/A,,Overcast,10,2013-05-08 13:35:00
9:55 AM,55.4,55.4,100,30.03,5.0,Calm,Calm,-,N/A,,Overcast,0,2013-05-08 13:55:00
10:15 AM,57.2,55.4,94,30.03,7.0,WNW,4.6,-,N/A,,Overcast,290,2013-05-08 14:15:00
10:35 AM,59.0,57.2,94,30.03,10.0,North,3.5,-,N/A,,Scattered Clouds,350,2013-05-08 14:35:00
10:55 AM,60.8,59.0,94,30.04,10.0,North,6.9,-,N/A,,Scattered Clouds,350,2013-05-08 14:55:00
11:15 AM,60.8,57.2,88,30.04,10.0,NNW,4.6,-,N/A,,Scattered Clouds,330,2013-05-08 15:15:00
11:35 AM,62.6,57.2,82,30.04,10.0,NW,8.1,-,N/A,,Scattered Clouds,320,2013-05-08 15:35:00
11:55 AM,64.4,55.4,73,30.03,10.0,NNW,8.1,-,N/A,,Scattered Clouds,330,2013-05-08 15:55:00
12:15 PM,66.2,57.2,73,30.04,10.0,North,4.6,-,N/A,,Scattered Clouds,350,2013-05-08 16:15:00
12:35 PM,66.2,57.2,73,30.04,10.0,NNW,9.2,-,N/A,,Mostly Cloudy,340,2013-05-08 16:35:00
12:55 PM,66.2,55.4,68,30.04,10.0,North,5.8,-,N/A,,Mostly Cloudy,350,2013-05-08 16:55:00
1:15 PM,68.0,59.0,73,30.03,10.0,North,6.9,-,N/A,,Mostly Cloudy,10,2013-05-08 17:15:00
1:35 PM,68.0,55.4,64,30.04,10.0,NNW,8.1,-,N/A,,Mostly Cloudy,340,2013-05-08 17:35:00
1:55 PM,69.8,55.4,60,30.03,10.0,NNW,5.8,-,N/A,,Scattered Clouds,330,2013-05-08 17:55:00
2:15 PM,69.8,55.4,60,30.03,10.0,NNW,5.8,-,N/A,,Mostly Cloudy,330,2013-05-08 18:15:00
2:35 PM,69.8,55.4,60,30.03,10.0,North,10.4,-,N/A,,Mostly Cloudy,360,2013-05-08 18:35:00
2:55 PM,69.8,55.4,60,30.02,10.0,NNW,6.9,-,N/A,,Scattered Clouds,340,2013-05-08 18:55:00
3:15 PM,71.6,55.4,57,30.02,10.0,NNW,6.9,-,N/A,,Scattered Clouds,340,2013-05-08 19:15:00
3:35 PM,71.6,53.6,53,30.02,10.0,NW,8.1,-,N/A,,Scattered Clouds,310,2013-05-08 19:35:00
3:55 PM,73.4,53.6,50,30.02,10.0,WNW,9.2,-,N/A,,Scattered Clouds,300,2013-05-08 19:55:00
4:15 PM,71.6,53.6,53,30.01,10.0,NW,6.9,-,N/A,,Scattered Clouds,310,2013-05-08 20:15:00
4:35 PM,71.6,55.4,57,30.00,10.0,WNW,10.4,-,N/A,,Overcast,300,2013-05-08 20:35:00
4:55 PM,71.6,53.6,53,30.00,10.0,WNW,8.1,-,N/A,,Overcast,300,2013-05-08 20:55:00
5:15 PM,73.4,55.4,53,30.00,10.0,NW,6.9,-,N/A,,Mostly Cloudy,320,2013-05-08 21:15:00
5:35 PM,71.6,53.6,53,30.00,10.0,NW,5.8,-,N/A,,Mostly Cloudy,310,2013-05-08 21:35:00
5:55 PM,69.8,53.6,56,30.01,10.0,North,3.5,-,N/A,,Overcast,360,2013-05-08 21:55:00
6:15 PM,69.8,59.0,68,30.01,10.0,Calm,Calm,-,N/A,,Overcast,0,2013-05-08 22:15:00
6:35 PM,71.6,53.6,53,30.01,10.0,Calm,Calm,-,N/A,,Mostly Cloudy,0,2013-05-08 22:35:00
6:55 PM,68.0,55.4,64,30.02,10.0,NNE,11.5,20.7,N/A,,Overcast,20,2013-05-08 22:55:00
7:15 PM,59.0,55.4,88,30.04,7.0,NNE,12.7,-,N/A,Rain,Rain,20,2013-05-08 23:15:00
7:35 PM,59.0,55.4,88,30.03,7.0,Calm,Calm,-,N/A,Rain,Rain,0,2013-05-08 23:35:00
7:55 PM,59.0,57.2,94,30.02,10.0,SE,3.5,-,N/A,,Overcast,140,2013-05-08 23:55:00
8:15 PM,59.0,57.2,94,30.03,10.0,Calm,Calm,-,N/A,,Overcast,0,2013-05-09 00:15:00
8:35 PM,59.0,59.0,100,30.05,10.0,Calm,Calm,-,N/A,Rain,Light Rain,0,2013-05-09 00:35:00
8:55 PM,59.0,59.0,100,30.05,10.0,SSE,3.5,-,N/A,Rain,Rain,160,2013-05-09 00:55:00
9:15 PM,59.0,57.2,94,30.05,10.0,SW,3.5,-,N/A,,Overcast,220,2013-05-09 01:15:00
9:35 PM,59.0,59.0,100,30.05,10.0,SW,3.5,-,N/A,,Mostly Cloudy,230,2013-05-09 01:35:00
9:55 PM,59.0,57.2,94,30.05,10.0,SW,3.5,-,N/A,,Scattered Clouds,220,2013-05-09 01:55:00
10:15 PM,57.2,55.4,94,30.06,10.0,SSW,4.6,-,N/A,,Scattered Clouds,210,2013-05-09 02:15:00
10:35 PM,55.4,55.4,100,30.07,10.0,SSW,4.6,-,N/A,,Clear,210,2013-05-09 02:35:00
10:55 PM,55.4,55.4,100,30.07,10.0,SSW,3.5,-,N/A,,Scattered Clouds,210,2013-05-09 02:55:00
11:15 PM,55.4,55.4,100,30.06,10.0,SSW,4.6,-,N/A,,Scattered Clouds,210,2013-05-09 03:15:00
11:35 PM,55.4,55.4,100,30.07,10.0,Calm,Calm,-,N/A,,Mostly Cloudy,0,2013-05-09 03:35:00